Find Starlink 30369

NORAD ID: 57781 Int'l Des: 2023-134 Owner: SPXS Country: US Constellation: starlink operational
LEOCIRCULAR

Live Position

Loading 3D Globe...

About Starlink 30369

Description loading...

Upcoming Passes

Passes for default location (London). Set your location on the main map for personalized predictions.

Altitude History

Loading altitude history...

Two-Line Element Set

1 57781U 23134L 26104.94918900 .00001188 00000-0 52687-4 0 9994
2 57781 43.0074 349.5770 0001586 255.6068 104.4608 15.27594718145052
Epoch: Apr 14, 2026 • Age: 10 hours

Current Status

Altitude 482.1 km
Velocity 7.63 km/s
Sub-Earth Point 12.21°N, 176.8°E
Launch Date Sep 4, 2023
Age 2.6 years
Type internet

Technical Details

Classification Payload
Mass 730.00 kg
Dry Mass 700.00 kg
Total Mass 730.00 kg
Length 0.30 m
Diameter 4.10 m
Span 29.00 m
Shape Box + pan
Manufacturer SPXS
Bus Type Starlink V2M
Phase Status In Orbit
Owner/State SPXS/US

Most Searched